Weather History for CYXL - January, 2013

Change the Weather History Date:

Friday, January 18, 2013

  Actual Average Record
Temperature  
Mean Temperature -10 °F -  
Max Temperature 1 °F 12 °F 24 °F (1999)
Min Temperature -22 °F -9 °F -22 °F (2002)
Degree Days  
Heating Degree Days 76    
Moisture  
Dew Point -14 °F    
Average Humidity 76    
Maximum Humidity 85    
Minimum Humidity 63    
Precipitation  
Precipitation 0.02 in 0.04 in - ()
Sea Level Pressure  
Sea Level Pressure 30.09 in    
Wind  
Wind Speed 3 mph ()    
Max Wind Speed 5 mph    
Max Gust Speed -    
Visibility 11.6 miles    
Events Snow    
Averages and records for this station are not official NWS values.
T = Trace of Precipitation, MM = Missing Value Source: Averaged Metar Reports

Daily Weather History Graph

Daily Weather History Graph

Search for Another Location

Airport or City:

Trip Planner

Search our weather history database for the weather conditions in past years. The results will help you decide how hot, cold, wet, or windy it might be!

Date:

Astronomy

Jan. 18, 2013 Rise Set
Actual Time 7:57 AM CST 4:38 PM CST
Civil Twilight 7:21 AM CST 5:15 PM CST
Nautical Twilight 6:41 AM CST 5:55 PM CST
Astronomical Twilight 6:02 AM CST 6:34 PM CST
Moon 10:46 AM CST (1/18) 12:17 AM CST (1/18)
Length of Visible Light 9h 54m
Length of Day
8h 41m
Waxing Crescent, 47% of the Moon is Illuminated
Jan 18
Waxing Crescent
Jan 18
First Quarter
Jan 26
Full
Feb 3
Last Quarter
Feb 10
New

Hourly Weather History & Observations

Time (CST) Temp. Windchill Dew Point Humidity Pressure Visibility Wind Dir Wind Speed Gust Speed Precip Events Conditions
12:00 AM -21 °F - -25 °F 71% 30.31 in 15 mi SSW 3.5 mph - -  
12:00 AM -20.2 °F -30.9 °F -25.6 °F 76% 30.31 in 15.0 mi SSW 3.5 mph - N/A   Clear
1:00 AM -18.4 °F - -23.8 °F 76% 30.30 in 15.0 mi South 2.3 mph - N/A   Clear
2:00 AM -23.8 °F -37.7 °F -27.4 °F 83% 30.29 in 15.0 mi South 4.6 mph - N/A   Clear
3:00 AM -22.0 °F - -27.4 °F 76% 30.27 in 15.0 mi SSE 2.3 mph - N/A   Clear
4:00 AM -20.2 °F - -25.6 °F 76% 30.24 in 15.0 mi SE 2.3 mph - N/A   Scattered Clouds
5:00 AM -18.4 °F -31.4 °F -23.8 °F 76% 30.21 in 15.0 mi SSE 4.6 mph - N/A   Overcast
6:00 AM -16 °F - -21 °F 66% 30.18 in 15 mi SSE 2.3 mph - -   Overcast
6:00 AM -14.8 °F - -20.2 °F 77% 30.18 in 15.0 mi SSE 2.3 mph - N/A   Overcast
7:00 AM -14.8 °F -24.8 °F -20.2 °F 77% 30.14 in 15.0 mi SSE 3.5 mph - N/A   Overcast
8:00 AM -13.0 °F - -18.4 °F 77% 30.14 in 15.0 mi SE 2.3 mph - N/A   Mostly Cloudy
9:00 AM -11.2 °F -20.6 °F -18.4 °F 70% 30.13 in 15.0 mi SSE 3.5 mph - N/A   Mostly Cloudy
10:00 AM -9.4 °F -18.6 °F -14.8 °F 77% 30.10 in 15.0 mi ESE 3.5 mph - N/A   Mostly Cloudy
11:00 AM -5.8 °F -14.5 °F -11.2 °F 77% 30.07 in 15.0 mi ESE 3.5 mph - N/A   Mostly Cloudy
12:00 PM -3 °F - -9 °F 63% 30.03 in 15 mi East 3.5 mph - -   Mostly Cloudy
12:00 PM -2.2 °F - -9.4 °F 71% 30.03 in 15.0 mi ESE 2.3 mph - N/A   Mostly Cloudy
1:00 PM -0.4 °F -10.4 °F -7.6 °F 72% 30.01 in 15.0 mi ENE 4.6 mph - N/A Snow Light Snow
2:00 PM 1.4 °F - -5.8 °F 72% 29.98 in 15.0 mi ENE 2.3 mph - N/A Snow Light Snow
3:00 PM 1.4 °F -8.3 °F -4.0 °F 78% 29.98 in 15.0 mi NE 4.6 mph - N/A   Overcast
3:22 PM - - - N/A% - 4.0 mi NE 4.6 mph - N/A   Unknown
3:36 PM - - - N/A% - 2.0 mi NE 4.6 mph - N/A   Unknown
4:00 PM -0.4 °F - -5.8 °F 78% 29.98 in 4.0 mi ENE 2.3 mph - N/A Snow Light Snow
5:00 PM -0.4 °F - -5.8 °F 78% 29.97 in 12.0 mi East 2.3 mph - N/A Snow Light Snow
6:00 PM -0 °F - -5 °F 70% 29.96 in 5 mi ENE 2.3 mph - - Snow Light Snow
6:00 PM -0.4 °F - -4.0 °F 85% 29.96 in 5.0 mi ENE 2.3 mph - N/A Snow Light Snow
7:00 PM -0.4 °F - -5.8 °F 78% 29.97 in 3.0 mi East 2.3 mph - N/A Snow Light Snow
7:47 PM - - - N/A% - 4.0 mi ENE 3.5 mph - N/A   Unknown
8:00 PM -0.4 °F -8.3 °F -5.8 °F 78% 29.97 in 6.0 mi ENE 3.5 mph - N/A Snow Light Snow
9:00 PM -2.2 °F -10.4 °F -5.8 °F 85% 29.94 in 15.0 mi East 3.5 mph - N/A Snow Light Snow
10:00 PM -2.2 °F -12.5 °F -5.8 °F 85% 29.94 in 4.0 mi East 4.6 mph - N/A Snow Light Snow
11:00 PM -2.2 °F -10.4 °F -5.8 °F 85% 29.91 in 10.0 mi East 3.5 mph - N/A Snow Light Snow